RH
31 35 35 33 32 31 29 28 27 27 28 30 32 32 32 32 31 31 31 30 35 39 37 36 37 34 35 36 34 34 36 37 36 36 41 45 47 49 51 53 52 50 46 44 52 59 62 65 62 58 59 62 67 73 75 76 80 82 81 78 79 79 78 77 78 77 77 75 72 70 67 61 56 50 45 41 38 37 33 32 35 35 33 31 29 29
29 33 28 25 26 26 25 25 25 27 28 30 30 29 31 31 29 29 30 32 36 40 38 37 38 35 35 37 35 37 41 42 38 36 38 39 39 41 42 45 48 52 50 43 46 55 56 58 55 51 52 56 61 66 70 72 74 76 78 79 80 78 76 76 78 79 78 74 70 69 67 64 60 51 44 40 38 36 32 31 34 34 33 32 30 29
26 26 23 23 24 24 23 23 24 26 28 29 28 30 31 30 31 31 29 31 36 41 40 37 38 38 37 38 37 39 44 43 39 36 36 37 38 39 39 39 41 48 52 44 43 50 50 49 50 49 51 55 58 60 63 66 69 70 70 73 75 75 73 75 77 77 73 67 67 68 66 65 64 55 46 41 38 37 34 31 32 34 33 32 30 28
26 23 22 23 23 23 23 24 25 26 26 26 27 30 30 27 32 35 32 33 34 36 39 38 38 37 37 39 39 39 41 41 38 34 34 34 35 37 36 36 36 39 45 44 44 46 46 46 46 47 49 51 52 54 55 56 60 61 62 65 68 68 69 70 70 69 66 64 66 66 64 65 63 57 53 46 39 37 35 32 32 34 34 32 29 27
23 21 22 23 22 23 24 25 25 25 24 22 23 24 23 23 28 31 33 34 34 34 36 38 40 37 35 37 39 38 38 39 37 33 34 34 32 34 34 34 34 34 37 41 44 46 45 45 44 45 46 44 45 49 50 50 51 54 56 58 61 63 64 65 64 63 63 64 67 66 65 65 60 55 56 49 39 37 36 32 31 32 33 32 29 28
20 21 21 21 21 22 24 24 23 23 22 22 21 20 21 22 24 27 30 34 38 40 35 35 42 39 35 37 37 37 37 38 36 33 34 34 32 32 32 31 31 33 36 39 42 44 45 45 42 42 41 40 42 46 47 48 48 49 52 53 56 59 60 61 60 61 62 63 64 63 62 60 55 53 55 48 39 38 37 33 31 30 32 32 30 28
19 20 20 21 21 21 23 22 21 21 22 22 21 19 20 22 23 26 29 32 37 38 31 29 37 38 37 38 36 36 38 37 36 34 33 32 31 31 30 28 28 32 36 37 39 40 43 45 43 40 39 40 44 47 46 45 44 45 48 50 53 56 57 57 57 59 61 60 59 57 56 56 53 51 53 49 41 39 38 35 32 30 30 31 30 28
18 19 20 19 20 22 23 22 21 21 22 23 20 19 20 22 24 27 29 32 31 31 31 29 31 35 38 37 35 36 39 38 36 34 32 31 32 32 31 29 30 32 33 35 38 38 40 45 44 42 40 42 46 47 44 42 42 43 44 45 48 51 52 52 54 58 60 59 57 55 56 58 54 50 52 50 45 41 38 35 33 31 29 30 30 27
16 18 18 18 21 22 21 21 21 21 22 23 21 21 22 22 25 27 28 31 28 30 37 34 31 35 38 36 34 37 41 41 38 34 32 32 32 33 34 33 33 33 33 34 36 37 39 43 45 43 42 43 43 42 41 41 42 42 42 43 44 46 47 48 51 55 56 57 55 54 58 58 54 53 54 53 49 43 39 35 33 32 29 30 30 27
17 17 16 17 20 21 19 20 21 22 23 23 22 22 23 23 25 27 29 31 30 31 34 33 31 33 35 35 37 40 42 42 40 36 33 33 33 33 35 35 36 35 33 33 35 39 39 39 41 43 42 41 38 36 38 40 42 42 41 41 41 42 43 45 47 49 52 52 50 52 56 55 53 54 55 55 52 47 42 37 32 31 31 30 30 28
16 17 17 18 18 18 19 20 21 23 23 23 23 24 25 25 25 27 27 29 32 32 31 29 30 32 34 33 36 39 37 36 37 36 34 33 34 35 36 36 36 36 35 31 31 36 37 35 36 39 39 37 34 35 37 38 39 40 40 40 40 41 42 43 45 47 50 50 48 51 53 53 53 53 54 55 56 54 48 40 33 30 30 30 29 29
16 17 18 19 19 19 19 20 22 22 22 23 25 26 27 28 28 28 29 29 30 32 31 28 29 33 35 35 34 34 31 31 33 33 33 32 33 35 37 37 36 36 37 34 29 30 35 37 36 36 37 35 32 33 35 36 38 39 40 41 41 41 42 43 44 45 47 47 46 48 50 50 50 50 53 55 56 58 53 45 38 31 29 30 30 29
19 17 17 18 20 20 21 23 23 22 22 23 24 26 27 27 27 27 29 28 27 30 31 28 29 33 34 33 32 31 30 30 30 30 31 32 34 37 38 38 37 36 37 36 29 26 30 36 38 38 39 37 34 34 33 34 36 37 39 39 38 40 41 42 44 45 45 46 46 47 47 47 47 47 50 53 54 56 56 53 47 36 29 29 29 28
23 19 18 18 20 21 22 24 26 25 24 24 24 26 26 26 27 27 26 25 26 28 28 27 29 32 33 32 30 29 30 29 28 29 31 31 33 37 37 37 38 38 38 37 31 26 29 34 37 37 38 38 38 37 34 33 34 35 37 37 37 39 40 40 42 43 43 43 44 44 43 43 45 46 48 51 51 52 57 58 51 40 33 30 29 29
25 24 22 20 21 21 21 22 24 23 23 23 22 22 25 27 27 27 26 25 26 28 28 29 30 30 33 33 29 27 28 27 28 30 31 32 34 36 37 38 38 40 41 38 31 27 28 32 33 32 33 35 36 35 33 33 34 34 35 35 35 37 38 37 39 40 39 41 41 40 40 42 44 43 45 50 48 46 52 53 47 44 38 32 30 30
23 24 20 19 20 20 20 21 20 21 25 23 20 23 27 26 25 26 28 27 27 29 29 29 30 28 28 29 25 25 27 28 30 32 32 33 35 37 38 38 37 39 41 39 34 29 30 30 29 29 30 33 34 33 32 32 33 34 34 34 34 35 36 35 36 37 37 39 40 40 41 42 42 39 40 46 47 44 46 46 45 45 41 35 32 30
26 26 21 19 20 19 21 22 20 23 27 24 24 27 26 23 23 26 31 31 29 30 30 28 28 27 28 29 26 25 28 29 30 32 33 34 35 36 38 37 37 38 38 37 34 32 32 31 29 29 31 32 34 34 34 34 34 35 35 35 34 34 34 34 34 35 35 35 36 37 39 39 37 34 35 41 45 43 42 44 46 46 41 36 34 32
26 28 23 21 24 22 21 22 22 23 25 25 27 26 22 24 26 25 27 29 28 28 27 26 26 26 28 32 29 26 28 29 29 31 33 33 34 35 36 36 36 35 32 32 33 33 34 34 32 31 31 31 33 34 35 36 35 36 36 36 35 34 34 34 33 34 34 34 34 35 35 34 32 32 33 36 40 41 41 46 49 46 42 39 35 32
23 27 26 23 24 26 22 22 27 26 23 24 25 23 23 28 29 27 27 28 27 26 26 27 26 25 26 29 28 27 29 30 30 31 32 33 34 34 35 36 35 32 28 30 34 34 34 35 33 32 31 32 32 33 35 36 36 38 38 37 36 35 35 35 34 34 34 33 33 33 32 32 31 32 33 34 36 38 41 45 47 44 42 40 37 35
21 25 28 24 23 25 25 26 30 30 24 22 22 22 23 25 25 25 26 26 27 27 27 26 25 27 27 25 25 28 29 30 31 32 32 32 33 33 31 31 33 31 28 30 33 32 33 34 33 33 33 34 33 33 34 35 36 38 39 38 37 36 36 35 34 34 34 34 33 32 32 31 31 32 33 34 35 37 39 43 43 42 41 40 39 38
20 22 25 24 21 24 28 29 28 27 25 23 23 24 23 23 24 24 24 24 24 25 27 25 24 27 25 21 23 28 30 31 32 33 33 32 32 32 28 26 28 28 27 28 29 29 31 33 33 32 33 35 36 37 36 35 35 36 37 38 38 36 35 34 33 33 33 33 33 33 33 33 32 32 32 33 35 36 38 40 42 42 41 39 38 39
21 21 21 21 22 26 28 25 24 25 25 23 23 24 24 24 24 24 25 25 22 22 25 25 25 27 25 19 21 26 27 29 32 31 32 32 32 29 25 25 25 25 26 27 27 28 30 32 34 34 35 37 38 39 40 39 38 36 36 38 38 36 35 35 34 34 33 31 31 32 32 33 32 31 32 34 35 37 37 39 42 43 40 38 38 38
22 21 20 21 24 26 24 23 25 26 25 24 24 24 25 25 24 23 24 26 24 24 25 24 23 26 25 21 21 23 23 26 28 27 29 32 31 25 23 24 25 24 25 26 26 28 30 32 33 34 35 37 37 38 38 38 40 40 37 38 38 36 35 35 35 35 35 32 30 31 31 31 31 31 32 34 36 38 39 39 43 43 39 38 41 40
22 23 22 22 24 24 24 25 26 26 26 28 28 26 25 26 24 22 23 24 22 22 25 24 24 26 27 22 21 23 23 24 25 24 26 30 29 24 23 24 23 23 25 25 25 27 29 31 32 33 33 34 34 36 36 36 38 40 39 39 40 38 35 34 34 34 33 32 31 31 30 31 31 30 31 34 36 38 39 39 41 40 38 39 43 41
23 24 23 24 26 27 27 28 29 28 27 28 30 29 26 25 22 22 23 21 19 21 24 22 22 26 27 22 19 21 21 22 24 23 24 26 26 24 23 23 23 23 24 24 24 26 28 29 30 30 31 31 31 32 34 34 35 36 38 37 38 39 35 33 33 32 31 30 29 29 29 30 30 30 32 34 35 35 37 38 38 36 35 39 43 42
22 23 23 24 26 26 27 30 31 29 27 28 30 30 28 26 22 23 24 21 20 24 24 20 19 23 24 21 20 21 20 21 23 22 22 24 24 23 22 22 23 23 23 24 24 25 26 27 27 29 30 30 30 30 31 33 33 33 34 33 32 34 34 32 31 30 30 30 28 27 28 29 30 31 32 33 34 36 37 37 35 33 33 37 40 41
20 21 21 22 24 25 27 28 26 25 26 30 31 30 29 28 25 24 24 21 22 24 22 20 20 21 21 22 24 24 21 20 21 21 22 23 23 22 22 23 23 23 23 24 24 24 25 26 26 28 29 30 29 29 30 31 32 32 33 34 33 33 32 31 29 29 30 28 28 29 30 30 31 32 33 36 37 38 37 34 32 31 34 36 37 39
21 21 22 22 24 25 25 26 25 24 28 31 32 32 31 30 28 28 25 24 25 24 23 24 23 23 23 23 25 26 23 20 21 21 21 22 23 23 22 23 23 23 23 23 24 24 24 25 26 27 29 30 29 28 29 30 31 33 34 35 35 34 32 29 29 31 32 30 31 32 32 32 33 33 35 35 35 33 32 33 32 31 33 34 35 37
24 24 24 23 25 25 22 23 25 25 27 30 31 31 32 30 31 31 29 29 29 26 26 27 26 25 24 22 23 23 21 20 21 21 22 23 23 23 23 22 22 22 22 22 22 23 24 25 26 27 28 29 29 29 29 29 30 32 33 33 34 34 34 31 30 33 35 35 35 35 34 33 32 31 32 30 30 31 31 33 34 32 32 33 33 34
26 27 27 26 28 28 24 24 27 27 28 30 29 30 31 30 29 29 28 29 31 30 28 28 27 27 24 21 20 20 21 22 23 23 24 23 22 23 22 22 22 22 21 21 21 22 23 24 26 27 27 28 29 29 29 29 29 30 31 31 32 33 34 33 32 34 35 36 37 36 35 35 32 30 31 30 31 32 32 33 34 33 33 34 33 34
27 29 30 28 28 30 28 26 27 27 29 29 29 29 30 30 30 30 30 30 31 30 29 30 30 27 25 23 23 24 23 24 24 24 23 21 22 22 22 22 22 21 21 21 21 21 23 23 25 26 26 26 27 28 29 29 29 29 30 30 30 31 32 33 34 34 35 35 36 35 35 35 34 33 33 32 32 33 33 34 34 33 34 34 33 33
28 29 30 28 27 29 28 26 26 28 28 29 29 28 29 31 30 30 30 31 30 30 30 31 29 27 28 27 25 26 25 23 22 23 22 21 21 22 22 21 21 21 21 21 21 21 22 23 24 25 26 26 26 27 28 28 28 28 28 29 30 30 31 33 34 34 34 35 36 35 35 36 36 36 35 35 34 34 34 34 33 33 34 35 34 34
30 29 29 28 26 26 27 27 27 29 30 31 30 26 26 28 28 28 29 29 30 30 29 28 26 27 29 28 26 27 26 22 21 22 23 22 21 22 22 21 21 21 21 21 21 22 22 22 23 25 26 26 25 25 27 27 28 28 28 28 29 30 31 32 33 33 33 34 35 35 36 36 36 36 36 36 35 35 33 33 33 34 35 35 36 36
33 31 30 29 26 27 30 30 29 28 27 27 27 23 23 25 27 28 28 28 29 29 27 25 25 26 27 27 26 27 24 22 23 24 25 24 22 23 23 22 22 22 22 22 23 23 23 23 24 25 26 27 26 25 26 27 28 28 28 29 29 30 30 31 32 32 32 33 34 35 36 36 36 36 36 36 36 35 34 34 34 35 36 37 37 37
36 33 32 32 29 29 31 31 29 28 26 25 25 24 24 25 26 27 26 25 27 28 27 25 24 24 25 26 27 25 23 24 24 25 26 25 24 25 25 24 23 23 23 23 23 23 23 23 23 25 27 27 27 27 27 28 29 29 29 29 29 30 30 30 30 31 32 33 33 35 37 37 37 37 37 37 37 36 35 35 35 36 37 38 39 39
37 35 34 33 32 31 31 30 29 28 27 28 28 28 28 28 28 29 28 27 27 27 27 26 23 23 24 26 27 27 26 26 25 23 24 25 25 26 27 26 25 24 24 24 24 24 24 23 24 25 27 28 29 29 29 28 29 30 30 30 30 30 30 30 30 30 31 32 33 33 35 36 37 38 38 38 38 37 36 35 35 36 38 39 39 40
37 38 36 35 34 32 31 30 29 29 30 31 32 31 30 30 30 31 30 29 29 29 28 26 25 24 25 27 29 30 29 27 26 25 26 26 26 27 26 25 24 24 24 24 24 25 25 25 26 27 28 30 30 30 30 30 30 30 31 31 31 30 30 30 31 31 30 31 32 32 34 35 36 38 39 39 39 38 37 36 36 36 37 39 39 40
35 37 38 37 36 35 32 30 29 29 30 32 32 31 31 32 32 31 32 35 33 30 28 28 27 26 27 30 31 32 30 28 28 30 29 26 26 26 24 23 23 24 25 26 26 27 27 28 29 29 28 29 30 30 30 30 30 30 31 32 32 32 32 31 31 31 31 31 32 32 33 35 36 37 38 39 40 39 39 38 36 37 40 40 39 40
35 36 37 37 37 37 36 33 30 30 31 33 34 32 32 34 34 35 38 40 36 32 31 31 30 29 30 32 33 33 30 28 30 32 30 27 26 25 24 25 27 26 26 26 26 28 29 29 31 31 31 30 30 30 31 30 30 30 31 32 32 32 33 33 32 31 31 32 32 33 34 35 36 37 38 40 41 41 42 40 39 41 44 44 41 40
39 37 37 39 38 38 38 35 32 32 33 34 34 33 33 35 37 38 41 43 40 36 37 36 33 32 33 34 35 33 30 30 32 32 30 28 28 27 27 28 30 29 29 28 28 28 30 30 32 32 33 33 32 33 33 32 31 31 31 32 33 34 35 34 33 33 33 34 34 34 35 36 37 36 37 39 41 42 43 43 42 41 41 42 43 40
42 39 39 40 40 39 40 38 34 34 35 36 35 35 35 37 40 41 43 44 41 38 39 40 37 36 37 37 37 35 33 32 32 32 30 30 30 30 30 30 31 31 32 32 31 30 30 31 32 33 34 34 35 35 36 34 34 33 32 32 33 34 35 35 35 36 36 35 35 35 35 37 37 37 37 39 40 41 42 42 42 40 37 39 43 42
42 41 41 41 41 41 42 40 38 36 37 38 39 41 41 41 42 44 44 43 42 40 40 41 39 40 40 39 39 38 38 36 35 33 32 32 32 34 33 32 31 32 33 33 34 34 33 33 33 34 36 37 37 37 36 36 36 36 35 34 34 33 35 36 37 39 39 38 37 36 35 36 37 37 38 40 40 40 42 42 42 40 38 39 41 40
42 41 41 42 42 44 44 43 41 40 40 40 41 43 44 42 42 43 41 40 41 43 43 42 41 41 41 40 40 41 40 40 39 36 34 34 34 34 34 34 33 33 33 34 34 35 35 35 35 36 38 39 39 38 38 37 38 38 37 37 36 35 36 37 38 39 40 39 38 37 35 36 37 38 38 40 40 41 42 43 43 41 40 39 39 38
41 40 42 44 43 43 45 45 44 42 42 42 40 41 42 40 40 40 38 37 39 42 44 44 43 42 42 41 41 42 42 42 41 39 38 37 36 36 35 35 35 34 34 34 35 35 36 36 37 36 38 40 41 41 39 39 39 39 40 40 39 38 38 38 38 38 39 39 39 38 36 37 40 41 42 41 42 43 44 45 44 44 43 42 41 41
40 40 42 45 44 43 44 46 45 45 46 45 43 42 43 42 42 41 40 40 40 40 43 45 44 44 45 43 42 43 44 43 42 42 41 40 39 38 37 37 37 36 35 35 35 36 36 36 37 36 37 39 41 42 41 40 41 42 43 43 43 42 41 40 40 40 40 40 40 39 39 40 41 44 45 44 43 44 46 47 48 48 47 46 45 45
42 42 42 43 43 43 43 44 46 46 48 48 47 46 45 44 44 44 43 43 42 42 45 48 47 46 46 46 45 45 45 44 43 43 42 41 41 40 39 39 39 38 37 37 37 36 36 36 36 35 35 37 40 42 42 41 42 43 44 46 46 46 45 44 44 43 43 43 43 42 42 42 43 45 47 46 45 46 48 49 51 51 50 50 50 48
44 45 44 44 44 44 45 46 48 48 49 49 49 49 48 47 46 45 45 44 43 44 47 49 49 47 46 45 45 45 45 45 44 44 44 44 44 43 42 41 40 39 39 39 38 37 36 35 34 34 34 36 39 41 42 42 42 44 46 47 49 50 51 50 50 50 50 49 49 48 47 46 45 46 48 49 49 50 50 50 52 52 51 51 52 51
51 49 47 46 47 48 49 49 50 50 51 52 52 51 51 50 49 48 48 46 44 43 43 44 45 45 44 45 45 45 44 44 45 46 46 47 46 45 44 43 42 41 41 41 40 37 36 36 36 35 34 35 38 40 42 42 44 45 47 48 51 52 53 54 55 56 56 57 57 56 54 52 49 48 50 52 54 54 54 53 54 55 54 53 55 55
53 51 49 48 50 52 52 52 52 53 55 56 56 55 54 53 52 52 52 52 50 48 46 45 44 44 44 44 45 45 45 46 47 47 47 46 45 44 44 43 43 43 44 43 40 37 36 37 38 37 36 36 37 39 41 43 45 47 49 50 52 53 54 55 57 58 60 62 63 62 60 55 52 52 53 55 57 58 58 58 59 60 59 58 57 56
50 50 50 50 53 55 55 56 56 57 59 60 59 60 58 57 56 54 53 53 53 52 51 49 48 48 47 46 45 46 46 48 49 49 49 47 44 43 42 42 42 42 43 41 39 37 38 39 40 40 40 40 39 40 42 45 47 48 50 51 53 54 54 55 57 58 59 62 65 67 66 62 57 54 54 54 56 57 57 56 55 56 57 57 57 56
48 49 49 51 53 55 57 59 59 59 61 62 62 62 61 60 58 55 53 52 51 51 50 49 49 49 49 48 49 49 49 50 49 50 50 49 47 46 45 44 44 43 43 41 41 41 42 42 42 43 43 43 43 42 43 46 48 49 50 51 51 53 54 55 56 58 58 60 63 68 70 69 63 58 55 55 55 56 56 55 55 55 54 53 54 56